User: anonymous   Login
Location: Frydek-Mistek
(49.6830°N, 18.3330°E)
Time: 07:14:19
(UTC+02:00)
Language:

Courier 1B Rocket - Orbit

View from above orbital plane
View from above orbital plane
View from above satellite
View from above satellite

Ground track
Ground track

The orbit data is extracted from the following two-line orbital elements,

1    59U 60013B   16119.94496614 +.00000095 +00000-0 +42097-5 0  9996
2    59 028.2496 057.1284 0189309 208.3901 150.6215 13.52938571741889
Epoch (UTC): 28 April 2016 22:40:45
Eccentricity: 0.0189309
inclination: 28.2496°
perigee height: 920 km
apogee height: 1202 km
right ascension of ascending node: 57.1284°
argument of perigee: 208.3901°
revolutions per day: 13.52938571
mean anomaly at epoch: 150.6215°
orbit number at epoch: 74188

The dashed part of the orbit path shows where the satellite is in the earth's shadow,  

DLR